When you browse on this site, cookies collect data to enhance your experience and personalize the content and advertising you see.
Visit our Privacy Policy to learn more. By continuing to use the site, you agree to this use of cookies and data.
  • In Denmark
  • List of Countries
  • For 7 days
  • Water Temperature
  • Weather Map
  • Weather Widgets
  • user-avatar
    Login

    Hourly Weather General Salgado

    Today, 27 May, Wednesday

    Time Temperature Precipitation Wind Pressure Humidity
    00:00 +12°C° 0 mm 1 mps 719 mmHg 77%
    01:00 +12°C° 0 mm 1 mps 719 mmHg 79%
    02:00 +11°C° 0 mm 1 mps 719 mmHg 81%
    03:00 +10°C° 0 mm 0 mps 719 mmHg 84%
    04:00 +10°C° 0 mm 0 mps 719 mmHg 85%
    05:00 +9°C° 0 mm 0 mps 719 mmHg 86%
    06:00 +9°C° 0 mm 0 mps 719 mmHg 87%
    07:00 +11°C° 0 mm 0 mps 720 mmHg 81%
    08:00 +13°C° 0 mm 0 mps 720 mmHg 75%
    09:00 +15°C° 0 mm 1 mps 721 mmHg 69%
    10:00 +16°C° 0 mm 0 mps 721 mmHg 62%
    11:00 +18°C° 0 mm 0 mps 721 mmHg 55%
    12:00 +20°C° 0 mm 0 mps 721 mmHg 48%
    13:00 +21°C° 0 mm 0 mps 721 mmHg 45%
    14:00 +21°C° 0 mm 0 mps 720 mmHg 43%
    15:00 +22°C° 0 mm 0 mps 720 mmHg 41%
    16:00 +20°C° 0 mm 0 mps 719 mmHg 47%
    17:00 +18°C° 0 mm 0 mps 719 mmHg 52%
    18:00 +18°C° 0 mm 1 mps 719 mmHg 58%
    19:00 +16°C° 0 mm 1 mps 719 mmHg 60%
    20:00 +15°C° 0 mm 1 mps 719 mmHg 63%
    21:00 +15°C° 0 mm 1 mps 719 mmHg 65%
    22:00 +14°C° 0 mm 1 mps 719 mmHg 67%
    23:00 +14°C° 0 mm 2 mps 719 mmHg 68%

    Tomorrow, 28 May, Thursday

    Time Temperature Precipitation Wind Pressure Humidity
    00:00 +13°C° 0 mm 2 mps 719 mmHg 70%
    01:00 +13°C° 0 mm 2 mps 719 mmHg 71%
    02:00 +12°C° 0 mm 2 mps 719 mmHg 73%
    03:00 +12°C° 0 mm 2 mps 719 mmHg 74%
    04:00 +12°C° 0 mm 2 mps 719 mmHg 76%
    05:00 +12°C° 0 mm 2 mps 719 mmHg 78%
    06:00 +10°C° 0 mm 2 mps 719 mmHg 80%
    07:00 +13°C° 0 mm 2 mps 720 mmHg 77%
    08:00 +14°C° 0 mm 2 mps 720 mmHg 73%
    09:00 +16°C° 0 mm 3 mps 721 mmHg 69%
    10:00 +18°C° 0 mm 3 mps 721 mmHg 62%
    11:00 +20°C° 0 mm 3 mps 721 mmHg 55%
    12:00 +24°C° 0 mm 3 mps 721 mmHg 48%
    13:00 +24°C° 0 mm 3 mps 721 mmHg 47%
    14:00 +25°C° 0 mm 2 mps 720 mmHg 45%
    15:00 +26°C° 0 mm 2 mps 719 mmHg 43%
    16:00 +24°C° 0 mm 2 mps 719 mmHg 50%
    17:00 +21°C° 0 mm 2 mps 719 mmHg 56%
    18:00 +20°C° 0 mm 1 mps 719 mmHg 63%
    19:00 +19°C° 0 mm 1 mps 719 mmHg 65%
    20:00 +17°C° 0 mm 2 mps 719 mmHg 68%
    21:00 +16°C° 0 mm 2 mps 719 mmHg 70%
    22:00 +16°C° 0 mm 2 mps 719 mmHg 72%
    23:00 +15°C° 0 mm 2 mps 719 mmHg 73%

    Day after tomorrow, 29 May, Friday

    Time Temperature Precipitation Wind Pressure Humidity
    00:00 +15°C° 0 mm 2 mps 719 mmHg 74%
    01:00 +14°C° 0 mm 2 mps 719 mmHg 76%
    02:00 +14°C° 0 mm 2 mps 719 mmHg 79%
    03:00 +14°C° 0 mm 2 mps 718 mmHg 81%
    04:00 +13°C° 0 mm 2 mps 719 mmHg 83%
    05:00 +13°C° 0 mm 2 mps 719 mmHg 85%
    06:00 +13°C° 0 mm 2 mps 719 mmHg 87%
    07:00 +14°C° 0 mm 3 mps 720 mmHg 81%
    08:00 +16°C° 0 mm 3 mps 720 mmHg 75%
    09:00 +18°C° 0 mm 3 mps 721 mmHg 69%
    10:00 +20°C° 0 mm 3 mps 721 mmHg 63%
    11:00 +22°C° 0 mm 3 mps 721 mmHg 56%
    12:00 +25°C° 0 mm 3 mps 721 mmHg 50%
    13:00 +26°C° 0 mm 3 mps 720 mmHg 49%
    14:00 +26°C° 0 mm 2 mps 720 mmHg 48%
    15:00 +27°C° 0 mm 2 mps 719 mmHg 46%
    16:00 +25°C° 0 mm 2 mps 719 mmHg 53%
    17:00 +23°C° 0 mm 1 mps 719 mmHg 59%
    18:00 +21°C° 0 mm 1 mps 718 mmHg 66%
    19:00 +20°C° 0 mm 1 mps 719 mmHg 67%
    20:00 +20°C° 0 mm 1 mps 719 mmHg 69%
    21:00 +18°C° 0 mm 2 mps 719 mmHg 70%
    22:00 +17°C° 0 mm 2 mps 719 mmHg 72%
    23:00 +17°C° 0 mm 2 mps 719 mmHg 74%

    30 May, Saturday

    Time Temperature Precipitation Wind Pressure Humidity
    00:00 +16°C° 0 mm 2 mps 719 mmHg 76%
    01:00 +16°C° 0 mm 2 mps 719 mmHg 78%
    02:00 +16°C° 0 mm 2 mps 719 mmHg 79%
    03:00 +15°C° 0 mm 2 mps 719 mmHg 81%
    04:00 +15°C° 0 mm 2 mps 719 mmHg 84%
    05:00 +15°C° 0 mm 2 mps 719 mmHg 87%
    06:00 +14°C° 0 mm 2 mps 719 mmHg 90%
    07:00 +16°C° 0 mm 2 mps 720 mmHg 85%
    08:00 +18°C° 0 mm 3 mps 720 mmHg 80%
    09:00 +19°C° 0 mm 3 mps 721 mmHg 75%
    10:00 +21°C° 0 mm 3 mps 721 mmHg 67%
    11:00 +24°C° 0 mm 2 mps 721 mmHg 60%
    12:00 +26°C° 0 mm 2 mps 721 mmHg 52%
    13:00 +27°C° 0 mm 2 mps 720 mmHg 50%
    14:00 +28°C° 0 mm 1 mps 720 mmHg 47%
    15:00 +26°C° 0 mm 0 mps 719 mmHg 44%
    16:00 +24°C° 0 mm 0 mps 719 mmHg 51%
    17:00 +22°C° 0 mm 0 mps 719 mmHg 57%
    18:00 +22°C° 0 mm 1 mps 719 mmHg 63%
    19:00 +21°C° 0 mm 1 mps 719 mmHg 64%
    20:00 +21°C° 0 mm 1 mps 719 mmHg 66%
    21:00 +20°C° 0 mm 1 mps 719 mmHg 67%
    22:00 +20°C° 0 mm 1 mps 719 mmHg 68%
    23:00 +19°C° 0 mm 1 mps 719 mmHg 69%

    31 May, Sunday

    Time Temperature Precipitation Wind Pressure Humidity
    00:00 +19°C° 0 mm 1 mps 719 mmHg 71%
    01:00 +18°C° 0 mm 1 mps 719 mmHg 71%
    02:00 +18°C° 0 mm 1 mps 719 mmHg 72%
    03:00 +18°C° 0 mm 1 mps 719 mmHg 72%
    04:00 +16°C° 0 mm 1 mps 719 mmHg 73%
    05:00 +16°C° 0 mm 1 mps 719 mmHg 74%
    06:00 +16°C° 0 mm 1 mps 719 mmHg 74%
    07:00 +18°C° 0 mm 1 mps 719 mmHg 71%
    08:00 +20°C° 0 mm 1 mps 720 mmHg 67%
    09:00 +22°C° 0 mm 1 mps 721 mmHg 63%
    10:00 +24°C° 0 mm 1 mps 721 mmHg 58%
    11:00 +25°C° 0 mm 1 mps 721 mmHg 53%
    12:00 +27°C° 0 mm 1 mps 721 mmHg 48%
    13:00 +28°C° 0 mm 1 mps 720 mmHg 47%
    14:00 +26°C° 0 mm 0 mps 720 mmHg 45%
    15:00 +27°C° 0 mm 0 mps 719 mmHg 44%
    16:00 +25°C° 0 mm 0 mps 719 mmHg 49%
    17:00 +23°C° 0 mm 0 mps 719 mmHg 55%
    18:00 +23°C° 0 mm 1 mps 719 mmHg 60%
    19:00 +23°C° 0 mm 1 mps 719 mmHg 62%
    20:00 +22°C° 0 mm 1 mps 719 mmHg 64%
    21:00 +20°C° 0 mm 2 mps 719 mmHg 66%
    22:00 +20°C° 0 mm 2 mps 719 mmHg 68%
    23:00 +19°C° 0 mm 2 mps 719 mmHg 69%

    1 June, Monday

    Time Temperature Precipitation Wind Pressure Humidity
    00:00 +19°C° 0 mm 2 mps 719 mmHg 71%
    01:00 +19°C° 0 mm 2 mps 719 mmHg 71%
    02:00 +18°C° 0 mm 2 mps 718 mmHg 72%
    03:00 +18°C° 0 mm 2 mps 718 mmHg 73%
    04:00 +18°C° 0 mm 2 mps 718 mmHg 74%
    05:00 +18°C° 0 mm 2 mps 718 mmHg 75%
    06:00 +17°C° 0 mm 2 mps 719 mmHg 76%
    07:00 +18°C° 0 mm 2 mps 719 mmHg 73%
    08:00 +20°C° 0 mm 2 mps 720 mmHg 70%
    09:00 +21°C° 0 mm 3 mps 720 mmHg 67%
    10:00 +24°C° 0 mm 3 mps 720 mmHg 61%
    11:00 +26°C° 0 mm 3 mps 720 mmHg 55%
    12:00 +28°C° 0 mm 3 mps 720 mmHg 49%
    13:00 +28°C° 0 mm 3 mps 719 mmHg 48%
    14:00 +28°C° 0 mm 3 mps 719 mmHg 47%
    15:00 +29°C° 0 mm 2 mps 718 mmHg 45%
    16:00 +27°C° 0 mm 2 mps 718 mmHg 51%
    17:00 +25°C° 0 mm 2 mps 717 mmHg 56%
    18:00 +23°C° 0 mm 2 mps 717 mmHg 61%
    19:00 +23°C° 0 mm 2 mps 717 mmHg 63%
    20:00 +21°C° 0 mm 2 mps 717 mmHg 64%
    21:00 +20°C° 0 mm 2 mps 717 mmHg 66%
    22:00 +20°C° 0 mm 2 mps 717 mmHg 65%
    23:00 +20°C° 0 mm 2 mps 717 mmHg 64%
    Show more